Location: Haut-Orb�
(46.9667°N, 0.1500°W)
Time: 02:26:10
(UTC+00:00)

Daily predictions for brighter satellites

Satellite Brightness Start Highest point End
(mag) Time Altitude Azimuth Time Altitude Azimuth Time Altitude Azimuth
ATLAS 3B R/B 4.0 03:30:35 33° NNE 03:30:39 33° NNE 03:36:57 10° E
ALOS 4.3 03:50:25 10° NE 03:53:16 25° ENE 03:53:16 25° ENE
NOSS 3-2 (C) 4.0 04:00:08 72° S 04:00:08 72° S 04:07:49 10° SSE
NOSS 3-4 (A) 4.0 04:00:50 51° ESE 04:00:50 51° ESE 04:06:45 10° NE
NOSS 3-4 (C) 4.0 04:00:54 51° ESE 04:00:54 51° ESE 04:06:53 10° NE
CENTAUR R/B 3.1 04:01:35 79° SSW 04:01:35 79° SSW 04:10:07 10° SSE
ATLAS 2AS CENTAUR R/B 3.4 04:15:30 26° SSW 04:20:15 61° ESE 04:27:58 10° NE
Atlas Centaur 2 4.4 04:26:40 15° S 04:27:48 15° S 04:31:10 10° SE
ATLAS 5 CENTAUR R/B 4.3 04:31:19 15° NNE 04:31:19 15° NNE 04:31:48 10° NE
ATLAS CENTAUR R/B 3.2 04:32:06 26° ENE 04:32:06 26° ENE 04:34:49 10° ESE
Lacrosse 5 2.3 04:32:03 57° SE 04:32:07 57° SE 04:37:06 10° ENE
ADEOS 4.0 04:29:19 10° NNE 04:34:30 60° ESE 04:39:39 10° S
Cosmos 1328 Rocket 4.2 04:35:39 54° E 04:35:39 54° E 04:39:41 10° SSE
Cosmos 2263 Rocket 2.4 04:43:11 56° NNW 04:43:11 56° NNW 04:47:57 10° NNE
Gbstr 26 Del rocket 3.9 04:43:34 40° E 04:43:34 40° E 04:46:09 10° ESE
SJ 16-02 1.9 04:45:52 52° NE 04:45:52 52° NE 04:49:17 10° NNE
Meteor 1-26 Rocket 4.2 04:48:59 21° N 04:52:58 88° ENE 04:58:35 10° S
FENGYUN 3A 3.5 04:53:59 10° N 04:59:25 75° WNW 05:04:47 10° SSW
Cosmos 1408 Rocket 3.9 04:57:41 10° S 05:02:06 68° E 05:06:32 10° NNE
Cosmos 2181 Rocket 3.8 04:57:57 10° N 05:04:10 78° W 05:10:17 10° S
USA 307 4.1 05:05:08 32° N 05:05:08 32° N 05:08:59 10° ENE
COSMO-SKYMED 1 2.6 05:01:35 10° SSE 05:05:54 78° ENE 05:07:59 31° N
Cosmos 1709 Rocket 4.0 05:00:34 10° SSW 05:06:49 58° WNW 05:13:09 10° N
USA 308 4.0 05:11:14 31° N 05:11:30 32° N 05:15:23 10° ENE
Lacrosse 4 Rocket 2.5 05:14:32 31° SSW 05:14:32 31° SSW 05:17:26 10° S
Meteor 2-3 Rocket 3.6 05:08:23 10° SSW 05:14:04 68° WNW 05:19:53 10° N
CZ-4C R/B 2.2 05:11:05 18° SSW 05:14:53 76° SE 05:20:49 10° NE
MOS 1 Rocket 4.5 05:11:48 10° SE 05:16:24 46° ENE 05:21:18 10° N
Cosmos 1943 4.1 05:17:53 29° SW 05:17:53 29° SW 05:21:44 10° SSW
CZ-4B R/B 3.4 05:13:29 10° NNE 05:18:01 71° ESE 05:22:24 10° S
FALCON 9 DEB 3.1 05:18:33 71° ESE 05:18:33 71° ESE 05:21:35 10° ENE
Cosmos 1689 Rocket 2.8 05:16:02 10° SSE 05:18:12 47° SSE 05:18:12 47° SSE
ATLAS 3B R/B 2.7 05:17:52 27° NW 05:22:03 82° SW 05:29:16 10° SSE
SAR-Lupe-4 3.5 05:19:11 10° S 05:22:38 65° WSW 05:22:38 65° WSW
Cosmos 1862 4.1 05:22:56 10° S 05:26:53 53° E 05:30:51 10° NNE
Genesis I 3.3 05:24:54 18° SSW 05:27:40 71° SE 05:31:31 10° NE
deb Chang Zheng 4 3.6 05:27:33 10° N 05:31:48 54° WNW 05:36:02 10° SSW
ALOS 2.8 05:27:40 10° N 05:31:45 36° WNW 05:31:45 36° WNW
Cosmos 990 Rocket 3.9 05:29:48 10° SSW 05:35:02 73° WNW 05:40:19 10° NNE
Cosmos 923 Rocket 4.5 05:34:01 32° WNW 05:35:29 38° WSW 05:40:22 10° S
Cosmos 2074 Rocket 3.9 05:30:33 10° S 05:36:44 83° W 05:43:00 10° N
METEOR-M 4.4 05:34:21 10° N 05:39:24 44° WNW 05:44:26 10° SW
SAR-Lupe-1 4.4 05:36:22 10° S 05:39:46 42° W 05:40:08 41° W
USA 305 4.0 05:38:55 25° NNW 05:40:30 34° N 05:44:27 10° ENE
BREEZE M DEB (TANK) 4.1 05:32:27 10° SW 05:41:00 41° SSE 05:44:02 10° E
Meteor 1-31 Rocket 3.7 05:38:03 10° N 05:40:29 28° NW 05:40:29 28° NW
Cosmos 405 Rocket 2.9 05:38:59 10° S 05:42:39 69° E 05:46:24 10° NNE
Cosmos 1812 2.6 05:43:09 10° N 05:47:01 89° W 05:50:51 10° S
EO 1 Delta rocket 3.8 05:42:05 10° S 05:47:08 81° W 05:51:46 10° NNW
USA 306 3.9 05:47:01 23° NW 05:49:00 35° N 05:52:58 10° ENE
Cosmos 2228 Rocket 3.0 05:45:05 10° N 05:49:32 87° W 05:53:56 10° S
Cosmos 1515 Rocket 3.9 05:46:48 16° NNW 05:50:01 42° W 05:54:13 10° SSW
CENTAUR R/B 4.2 05:48:49 20° W 05:51:12 23° WSW 05:57:32 10° SSW
NOSS 3-4 (A) 3.9 05:48:19 22° W 05:51:46 40° NW 05:57:51 10° NNE
NOSS 3-4 (C) 3.9 05:48:24 21° W 05:51:54 40° NW 05:57:59 10° NNE
SL-4 R/B 2.5 05:50:37 27° NW 05:52:11 40° N 05:55:42 10° ENE
PSLV R/B 4.2 05:48:40 10° S 05:52:38 45° W 05:55:47 15° NNW
Cosmos 1782 3.7 05:52:15 27° WNW 05:52:54 29° W 05:56:22 10° SSW
SKYMED 2 4.2 05:50:10 10° SSW 05:54:06 34° W 05:56:36 19° NW
Cosmos 2184 Rocket 4.0 05:48:02 10° SSW 05:54:17 66° W 06:00:40 10° N
USA-17 4.2 05:51:00 10° SW 05:54:43 82° NW 05:57:50 10° NE
ERS-2 4.4 05:53:43 10° SW 05:53:52 11° SW 05:53:52 11° SW
FALCON 9 DEB 3.1 05:56:58 30° W 05:58:13 52° NNW 06:01:23 10° NE
SJ-12 4.5 05:55:07 10° N 05:58:48 34° WNW 06:02:27 10° SW
USA 234 4.1 05:52:47 10° ENE 05:59:07 51° SE 06:05:27 10° SSW
Cosmos 1844 Rocket 2.6 05:55:01 10° SW 06:00:38 69° WNW 06:06:20 10° NNE
FALCON 9 DEB 4.3 05:59:52 21° NW 06:01:33 33° N 06:04:44 10° ENE
Cosmos 1680 Rocket 4.4 06:00:25 18° NW 06:03:19 30° W 06:07:51 10° SSW
EXPRESS MD2 3.9 06:03:37 21° WNW 06:06:11 82° NNE 06:13:40 10° ESE
Cosmos 1707 Rocket 4.3 06:02:16 10° N 06:06:33 54° ENE 06:10:47 10° SSE
COSMOS 2455 3.2 06:02:46 10° SSW 06:08:45 70° ESE 06:14:45 10° NE
RESURS DK-1 2.8 06:05:09 10° SW 06:09:05 40° NW 06:13:02 10° NNE
Meteor PRIRODA 4.3 06:06:49 10° N 06:10:12 33° WNW 06:13:34 10° SW
ATLAS CENTAUR R/B 1.9 06:08:18 20° WNW 06:10:24 36° WSW 06:14:02 10° S
BREEZE-M DEB 4.0 06:02:56 16° WNW 06:10:48 54° SW 06:14:05 10° SE
ATLAS 2AS CENTAUR R/B 3.3 06:04:00 10° WSW 06:11:37 46° NW 06:19:03 10° NE
EP 3 4.0 06:11:51 34° NW 06:11:57 34° NW 06:13:45 10° NNE
NOAA 6 4.1 06:06:52 10° NNE 06:12:01 83° ESE 06:17:08 10° SSW
ERBS 4.3 06:11:05 13° NNW 06:12:11 15° N 06:14:15 10° NNE
Cosmos 1500 Rocket 3.8 06:09:53 10° SSW 06:13:59 42° WNW 06:18:07 10° N
Cosmos 1844 3.6 06:09:02 10° SW 06:14:33 67° WNW 06:20:08 10° NNE
H-2A R/B 3.0 06:10:49 10° N 06:14:36 48° WNW 06:18:20 10° SSW
Lacrosse 5 2.3 06:11:18 15° W 06:15:16 42° NNW 06:20:07 10° NE
Atlas Centaur 2 4.4 06:12:55 10° SW 06:15:46 14° S 06:18:21 10° SSE
Cosmos 1437 Rocket 2.6 06:13:23 10° NNW 06:17:09 65° W 06:20:52 10° S
CZ-4B DEB 4.2 06:11:42 10° NNE 06:17:12 87° WNW 06:22:40 10° SSW
Cosmos 372 Rocket 4.0 06:13:01 10° SSW 06:18:06 89° ESE 06:23:14 10° NNE
Okean O Rocket 2.4 06:16:19 10° NNE 06:20:43 58° E 06:25:07 10° S
Cosmos 1242 Rocket 4.5 06:18:47 10° N 06:22:04 30° ENE 06:25:21 10° SE
PAYLOAD B 4.3 06:18:05 10° NNE 06:23:38 87° ESE 06:29:08 10° SSW
SJ 16-02 3.0 06:22:57 14° WNW 06:24:00 15° NW 06:26:31 10° NNW
USA 81 4.3 06:19:12 10° S 06:24:26 73° E 06:29:42 10° N
SMAP 3.4 06:19:46 10° NNE 06:24:27 73° ESE 06:29:06 10° S
Cosmos 2263 Rocket 3.8 06:24:56 12° WNW 06:27:23 16° NW 06:30:44 10° N
Gbstr 26 Del rocket 4.2 06:26:06 12° W 06:28:47 23° SW 06:32:00 10° SSE
ATLAS 5 CENTAUR R/B 2.9 06:27:18 10° SSW 06:31:08 43° ESE 06:35:23 10° NE
FALCON 9 DEB 3.6 06:28:58 12° W 06:31:40 37° NNW 06:34:42 10° NE
FALCON 9 DEB 3.7 06:29:05 12° W 06:31:45 36° NNW 06:34:47 10° NE
Sich 1 3.0 06:30:13 10° SSW 06:34:38 67° WNW 06:39:04 10° N
Cosmos 1898 Rocket 4.3 06:30:03 10° WSW 06:34:41 30° NW 06:39:22 10° N
Nadezhda 3 Rocket 4.3 06:28:48 10° NNW 06:34:46 46° W 06:40:38 10° SSW
CZ-2C R/B 2.7 06:30:27 10° SSE 06:35:57 88° WSW 06:41:22 10° NNW
AQUARIUS 4.2 06:33:40 10° NNE 06:38:12 88° ESE 06:42:41 10° SSW
H-2A R/B 2.4 06:34:54 10° N 06:38:39 50° WNW 06:42:20 10° SSW
Envisat 3.1 06:33:50 10° N 06:38:47 54° WNW 06:43:42 10° SW
COSMO-SKYMED 1 4.5 06:41:07 10° WSW 06:42:37 12° W 06:44:08 10° WNW
CORIOLIS 4.3 06:38:08 10° NNE 06:43:38 83° ESE 06:49:05 10° SSW
USA 307 3.5 06:41:34 10° NW 06:45:48 51° NNE 06:50:01 10° E
Cosmos 2082 Rocket 3.1 06:42:25 10° NNW 06:47:56 48° NE 06:53:26 10° SE
CZ-4B R/B 3.2 06:43:08 10° NNE 06:48:30 81° WNW 06:53:56 10° SSW
NOAA 11 4.5 06:44:44 10° NNE 06:50:14 77° ESE 06:55:44 10° S
CZ-4 R/B 3.9 06:47:24 10° NE 06:51:01 27° E 06:54:37 10° SSE
Cosmos 1937 Rocket 4.3 06:47:14 10° WSW 06:51:39 28° NW 06:56:08 10° N
